User: anonymous   Login
Location: Unspecified
(0.0000°N, 0.0000°E)
Time: 20:08:43
(UTC+00:00)
Language:

TBA - TO BE ASSIGNED - Orbit

View from above orbital plane
View from above orbital plane
View from above satellite
View from above satellite

Ground track
Ground track

The orbit is defined by the following mean orbital elements,

1 67627U          26145.05325056 +.00000000 +00000-0 +66545-3 0 00004
2 67627  43.0025  68.4176 0001571 274.4087  85.6585 15.27597250    02
Epoch (UTC): 25 May 2026 01:16:40
Eccentricity: 0.0001571
inclination: 43.0025°
perigee height: 482 km
apogee height: 484 km
right ascension of ascending node: 68.4176°
argument of perigee: 274.4087°
revolutions per day: 15.27597250
mean anomaly at epoch: 85.6585°

The dashed part of the orbit path shows where the satellite is in the earth's shadow,  

DLR